Regional Weather Roundup
Issued by NWS Cleveland, OH

Home | Current Version | Previous Version | Graphics & Text | Print | Product List | Glossary On
Versions: 1 2 3 4 5 6 7 8 9 10 11 12 13 14 15 16 17 18 19 20 21 22 23 24 25 26 27 28 29 30 31 32 33 34 35 36 37 38 39 40 41 42 43 44 45 46 47 48 49 50
000
ASUS41 KCLE 252000
RWRCLE
OHIO REGIONAL WEATHER ROUNDUP
NATIONAL WEATHER SERVICE WILMINGTON, OH
400 PM EDT FRI JUL 25 2014

NOTE: "FAIR" INDICATES FEW OR NO CLOUDS BELOW 12,000 FEET WITH NO
SIGNIFICANT WEATHER AND/OR OBSTRUCTIONS TO VISIBILITY.

OHZ001>008-015>018-024>027-034-035-043-044-252100-
   NORTHWEST OHIO

CITY           SKY/WX    TMP DP  RH WIND       PRES   REMARKS
DEFIANCE       MOSUNNY   76  54  46 S9        30.00F
FINDLAY        SUNNY     77  54  44 CALM      30.01F
TOLEDO EXPRESS MOSUNNY   77  53  43 VRB7      30.00F
TOLEDO METCALF MOSUNNY   77  52  41 S8G18     30.01F
LIMA           SUNNY     75  53  46 CALM      30.03F
$$

OHZ009>014-019>023-028>033-038-089-252100-
   NORTHEAST OHIO

CITY           SKY/WX    TMP DP  RH WIND       PRES   REMARKS
CLE-HOPKINS    PTSUNNY   75  54  47 N8        30.04F
CLE-LAKEFRONT  MOSUNNY   73  53  49 NW7       30.02F
CUY CO. ARPT   PTSUNNY   73  55  53 NW12      30.04F
LORAIN-ELYRIA  MOSUNNY   78  50  37 W6        30.03F
ASHTABULA      MOSUNNY   74  56  53 NW7       30.04F
AKRON-CANTON   MOSUNNY   75  48  38 SW7       30.04F
WOOSTER        NOT AVBL
MANSFIELD      SUNNY     75  49  39 VRB6      30.05F
YOUNGSTOWN     MOSUNNY   76  47  35 CALM      30.04F
$$

OHZ042-051>053-060>062-070>072-077>081-252100-
  SOUTHWEST OHIO

CITY           SKY/WX    TMP DP  RH WIND       PRES   REMARKS
CINC-COVINGTON PTSUNNY   78  55  44 SW9       30.05S
CINC-LUNKEN    MOSUNNY   79  56  45 VRB5      30.03F
HAMILTON       MOSUNNY   78  56  46 W8        30.05S
DAYTON         NOT AVBL
WRIGHT-PAT AFB MOSUNNY   74  52  46 CALM      30.04F
DAYTON GENERAL MOSUNNY   76  54  46 VRB5      30.04F
WILMINGTON     MOSUNNY   77  56  48 S7        30.05F
$$

OHZ036-037-039>041-045>050-054>059-063>069-073>076-082>088-252100-
  CENTRAL AND SOUTHEAST OHIO

CITY           SKY/WX    TMP DP  RH WIND       PRES   REMARKS
COLUMBUS       PTSUNNY   79  53  40 S8        30.03F
OSU AIRPORT    MOSUNNY   77  56  48 VRB5      30.03F
BOLTON FIELD   MOSUNNY   75  59  57 S7        30.05S
RICKENBACK AFB NOT AVBL
NEWARK         MOSUNNY   77  56  48 VRB5      30.04F
MARION         SUNNY     75  52  44 VRB6      30.04F
LANCASTER      MOSUNNY   76  57  51 SW6       30.04F
ZANESVILLE     MOSUNNY   75  52  44 SW5       30.04F
NEW PHILLY     SUNNY     75  55  49 S6        30.05F
$$


USA.gov is the U.S. government's official web portal to all federal, state and local government web resources and services.